Date String (YYYY-MM-DD hh:mm:ss) UTC,Instrument flags,Ambient pressure (hPa),Sample flow (lpm),Bypass flow (lpm),Sample temperature (°C),Ambient temperature (°C),ASC tube jacket temperature (°C),LED temperature (°C),Box temperature (°C),Sample RH (%),Span deviation,Mass concentration (μg/m³),Mass concentration (μg/m³),Mass concentration (μg/m³)
DateTimeUTC,F1_M11,P_M11,Q1_M11,Q2_M11,T1_M11,T2_M11,T3_M11,T4_M11,T5_M11,U1_M11,ZSPAN_M11,X0_M11,X2_M11,X1_M11
2022-05-15 20:00:00,,0829.7,5.00,0.00,29.7,28.6,00.0,38.5,31.5,16.4,0000.0,0016.28,0004.09,0002.75
2022-05-15 20:01:00,,0829.8,4.99,0.00,29.6,27.0,00.0,38.5,31.2,16.9,0000.0,0015.87,0004.13,0002.75
2022-05-15 20:02:00,,0829.7,5.00,0.00,29.5,25.9,00.0,38.5,30.9,16.8,0000.0,0014.99,0004.15,0002.75
2022-05-15 20:03:00,,0829.7,5.00,0.00,29.5,26.2,00.0,38.4,31.0,16.6,0000.0,0014.77,0004.23,0002.78
2022-05-15 20:04:00,,0829.6,5.01,0.00,29.4,26.6,00.0,38.4,31.1,16.6,0000.0,0014.68,0004.24,0002.82
2022-05-15 20:05:00,,0829.7,4.99,0.00,29.4,27.0,00.0,38.4,31.1,16.9,0000.0,0015.08,0004.25,0002.83
2022-05-15 20:06:00,,0829.7,5.01,0.00,29.4,27.3,00.0,38.4,31.2,17.0,0000.0,0015.44,0004.21,0002.82
2022-05-15 20:07:00,,0829.6,5.00,0.00,29.4,27.6,00.0,38.4,31.2,16.7,0000.0,0014.96,0004.20,0002.81
2022-05-15 20:08:00,,0829.7,5.00,0.00,29.5,27.8,00.0,38.4,31.2,16.7,0000.0,0013.54,0004.16,0002.77
2022-05-15 20:09:00,,0829.6,5.00,0.00,29.5,28.0,00.0,38.4,31.3,17.2,0000.0,0012.81,0004.12,0002.72
2022-05-15 20:10:00,,0829.6,4.99,0.00,29.5,28.1,00.0,38.4,31.3,16.6,0000.0,0013.36,0004.03,0002.70
2022-05-15 20:11:00,,0829.6,5.00,0.00,29.5,28.2,00.0,38.4,31.4,17.0,0000.0,0013.40,0003.99,0002.68
2022-05-15 20:12:00,,0829.6,5.00,0.00,29.6,28.3,00.0,38.4,31.4,17.2,0000.0,0013.02,0004.00,0002.66
2022-05-15 20:13:00,,0829.6,5.00,0.00,29.6,28.4,00.0,38.4,31.4,16.4,0000.0,0013.12,0003.99,0002.66
2022-05-15 20:14:00,,0829.6,5.00,0.00,29.6,28.5,00.0,38.4,31.4,16.6,0000.0,0012.21,0003.93,0002.64
2022-05-15 20:15:00,,0829.6,5.00,0.00,29.6,28.6,00.0,38.5,31.5,16.3,0000.0,0012.08,0003.94,0002.61
2022-05-15 20:16:00,,0829.6,5.01,0.00,29.7,28.6,00.0,38.5,31.5,16.4,0000.0,0012.12,0003.97,0002.59
2022-05-15 20:17:00,,0829.6,5.00,0.00,29.7,28.6,00.0,38.5,31.5,16.6,0000.0,0011.98,0003.95,0002.59
2022-05-15 20:18:00,,0829.6,4.99,0.00,29.6,27.1,00.0,38.5,31.1,16.4,0000.0,0011.82,0003.94,0002.61
2022-05-15 20:19:00,,0829.5,5.01,0.00,29.5,25.9,00.0,38.5,30.9,16.6,0000.0,0012.36,0004.00,0002.61
2022-05-15 20:20:00,,0829.6,4.99,0.00,29.4,26.1,00.0,38.4,31.0,16.7,0000.0,0012.74,0003.96,0002.62
2022-05-15 20:21:00,,0829.5,5.01,0.00,29.4,26.5,00.0,38.4,31.0,16.9,0000.0,0012.56,0003.96,0002.63
2022-05-15 20:22:00,,0829.5,5.01,0.00,29.4,26.9,00.0,38.4,31.1,16.5,0000.0,0012.49,0003.97,0002.64
2022-05-15 20:23:00,,0829.5,5.00,0.00,29.4,27.2,00.0,38.4,31.2,16.6,0000.0,0012.45,0003.91,0002.63
2022-05-15 20:24:00,,0829.5,5.00,0.00,29.4,27.5,00.0,38.4,31.2,16.5,0000.0,0013.01,0003.89,0002.62
2022-05-15 20:25:00,,0829.5,5.01,0.00,29.5,27.8,00.0,38.4,31.3,16.6,0000.0,0013.57,0003.82,0002.56
2022-05-15 20:26:00,,0829.6,5.00,0.00,29.5,28.0,00.0,38.4,31.3,16.7,0000.0,0013.92,0003.78,0002.54
2022-05-15 20:27:00,,0829.5,5.00,0.00,29.5,28.1,00.0,38.4,31.3,16.7,0000.0,0014.56,0003.71,0002.52
2022-05-15 20:28:00,,0829.5,4.99,0.00,29.5,28.2,00.0,38.4,31.4,16.6,0000.0,0014.46,0003.70,0002.49
2022-05-15 20:29:00,,0829.5,5.00,0.00,29.6,28.4,00.0,38.4,31.4,16.4,0000.0,0014.62,0003.72,0002.47
2022-05-15 20:30:00,,0829.5,5.00,0.00,29.6,28.5,00.0,38.4,31.4,16.3,0000.0,0014.30,0003.67,0002.44
2022-05-15 20:31:00,,0829.5,5.00,0.00,29.6,28.5,00.0,38.4,31.5,17.0,0000.0,0013.74,0003.66,0002.43
2022-05-15 20:32:00,,0829.5,5.00,0.00,29.6,28.6,00.0,38.4,31.5,16.8,0000.0,0013.29,0003.66,0002.42
2022-05-15 20:33:00,,0829.5,5.00,0.00,29.7,28.7,00.0,38.5,31.5,16.6,0000.0,0012.79,0003.68,0002.42
2022-05-15 20:34:00,,0829.5,5.00,0.00,29.7,27.2,00.0,38.5,31.2,17.0,0000.0,0012.64,0003.69,0002.43
2022-05-15 20:35:00,,0829.5,4.99,0.00,29.5,26.1,00.0,38.5,31.0,17.1,0000.0,0012.31,0003.64,0002.43
2022-05-15 20:36:00,,0829.5,5.01,0.00,29.5,26.3,00.0,38.4,31.1,16.6,0000.0,0012.23,0003.66,0002.46
2022-05-15 20:37:00,,0829.5,4.99,0.00,29.5,26.7,00.0,38.4,31.1,16.4,0000.0,0012.33,0003.68,0002.50
2022-05-15 20:38:00,,0829.4,4.99,0.00,29.4,27.1,00.0,38.4,31.1,16.9,0000.0,0011.54,0003.73,0002.51
2022-05-15 20:39:00,,0829.3,5.00,0.00,29.5,27.4,00.0,38.4,31.2,16.6,0000.0,0011.10,0003.77,0002.51
2022-05-15 20:40:00,,0829.4,5.00,0.00,29.5,27.7,00.0,38.4,31.3,16.8,0000.0,0011.11,0003.74,0002.51
2022-05-15 20:41:00,,0829.4,5.00,0.00,29.5,27.9,00.0,38.4,31.3,16.7,0000.0,0011.06,0003.73,0002.49
2022-05-15 20:42:00,,0829.4,5.02,0.00,29.5,28.1,00.0,38.4,31.4,16.7,0000.0,0011.21,0003.77,0002.48
2022-05-15 20:43:00,,0829.3,5.00,0.00,29.6,28.3,00.0,38.4,31.4,16.6,0000.0,0011.59,0003.75,0002.46
2022-05-15 20:44:00,,0829.2,4.99,0.00,29.6,28.4,00.0,38.4,31.5,16.3,0000.0,0011.58,0003.73,0002.45
2022-05-15 20:45:00,,0829.2,4.99,0.00,29.6,28.5,00.0,38.4,31.5,16.4,0000.0,0011.65,0003.74,0002.43
2022-05-15 20:46:00,,0829.3,5.01,0.00,29.7,28.6,00.0,38.5,31.5,16.2,0000.0,0011.64,0003.76,0002.41
2022-05-15 20:47:00,,0829.2,5.00,0.00,29.7,28.6,00.0,38.5,31.5,16.1,0000.0,0010.88,0003.77,0002.38
2022-05-15 20:48:00,,0829.5,5.01,0.00,29.7,27.9,00.0,38.5,31.4,16.0,0000.0,0010.65,0003.77,0002.32
2022-05-15 20:49:00,,0829.2,5.00,0.00,29.6,25.6,00.0,38.5,30.9,16.1,0000.0,0011.60,0003.72,0002.29
2022-05-15 20:50:00,,0829.2,5.00,0.00,29.4,24.8,00.0,38.4,30.7,16.4,0000.0,0011.57,0003.64,0002.25
2022-05-15 20:51:00,,0829.2,5.00,0.00,29.3,25.3,00.0,38.4,30.8,17.1,0000.0,0011.35,0003.65,0002.23
2022-05-15 20:52:00,,0829.2,4.99,0.00,29.3,25.8,00.0,38.3,30.8,16.7,0000.0,0011.28,0003.63,0002.23
2022-05-15 20:53:00,,0829.2,5.00,0.00,29.3,26.3,00.0,38.3,30.9,16.3,0000.0,0011.13,0003.59,0002.24
2022-05-15 20:54:00,,0829.2,4.99,0.00,29.3,26.7,00.0,38.3,31.0,16.3,0000.0,0010.41,0003.58,0002.24
2022-05-15 20:55:00,,0829.2,4.99,0.00,29.3,27.1,00.0,38.2,31.1,16.3,0000.0,0010.39,0003.58,0002.22
2022-05-15 20:56:00,,0829.2,5.00,0.00,29.3,27.4,00.0,38.2,31.1,17.3,0000.0,0010.63,0003.53,0002.19
2022-05-15 20:57:00,,0829.2,5.00,0.00,29.3,27.6,00.0,38.2,31.2,16.5,0000.0,0011.14,0003.51,0002.20
2022-05-15 20:58:00,,0829.2,5.00,0.00,29.4,27.8,00.0,38.2,31.2,16.7,0000.0,0011.48,0003.50,0002.19
2022-05-15 20:59:00,,0829.2,5.00,0.00,29.4,28.0,00.0,38.3,31.2,16.5,0000.0,0011.80,0003.50,0002.20
